Weather in Khasavurt

Russia / Republic of Dagestan     43°14′46″N   46°35′24″E
temp.,
°C
wind,
m/s
gust,
m/s
humid.,
%
clouds,
%
prec.,
mm/h
press.,
hPa
HPBL,
m
4 march, thu
thu400:00+1w71194100 1.3 1024666
03:00+2wsw6117398 1.4 1025544
06:00+1wsw6127581 0.0 1027545
09:00+3w686049 0.0 10271068
12:00+6nw34440 0.0 10261085
15:00+8nne22390 0.0 10241154
18:00+5ene23510 0.0 102536
21:00+3sse12710 0.0 102524
5 march, fri
fri500:00+2s11680 0.0 102322
03:00+2ssw11650 0.0 102222
06:00+1sw11640 0.0 102122
09:00+5ne11510 0.0 1021261
12:00+8ne22370 0.0 1019684
15:00+10ene22310 0.0 1018797
18:00+7e33540 0.0 101965
21:00+5se12640 0.0 102129
6 march, sat
sat600:00+5se12560 0.0 102024
03:00+4sse11510 0.0 101922
06:00+3sw23460 0.0 101922
09:00+9nne00311 0.0 1018141
12:00+13ene33260 0.0 1016461
15:00+16ene34246 0.0 1014718
18:00+11ese33390 0.0 101459
21:00+10ssw124536 0.0 101424
7 march, sun
sun700:00+8w4753100 0.0 1013161
03:00+6wnw61170100 0.0 1015571
06:00+2nw6996100 2.4 1020554
09:000nw71098100 7.4 1022569
12:00+3wnw8116596 1.4 10231353
15:00+3wnw684690 1.5 10231406
18:00+1nw235522 0.0 102477
21:000se115911 0.0 102521
8 march, mon
mon800:00−1ese226219 0.0 102534
03:00−2ese126521 0.0 102426
06:00−2sse11670 0.0 102421
09:00+2ne23560 0.0 1023446
12:00+6ene56470 0.0 10201282
15:00+6ene444923 0.0 10191332
18:00+3ene3573100 0.0 1020177
21:00+1s128276 0.0 102025